Weather History for Lincoln, NE

Change the Weather History Date:

Thursday, October 4, 2012

  Actual Average Record
Temperature  
Mean Temperature 51 °F 58 °F  
Max Temperature 58 °F 71 °F 93 °F (1938)
Min Temperature 43 °F 45 °F 29 °F (1999)
Degree Days  
Heating Degree Days 14 8  
Month to date heating degree days 39 30  
Since 1 July heating degree days 149 128  
Cooling Degree Days 0 1  
Month to date cooling degree days 0 4  
Year to date cooling degree days 1491 1162  
Growing Degree Days 2 (Base 50)    
Moisture  
Dew Point 35 °F    
Average Humidity 56    
Maximum Humidity 76    
Minimum Humidity 36    
Precipitation  
Precipitation T in 0.08 in 1.20 in (1902)
Month to date precipitation T 0.32  
Year to date precipitation 15.57 24.92  
Snow  
Snow 0.00 in 0.00 in - ()
Month to date snowfall 0.0 0.0  
Since 1 July snowfall 0.0 T  
Snow Depth 0.00 in    
Sea Level Pressure  
Sea Level Pressure 30.22 in    
Wind  
Wind Speed 14 mph (NNW)    
Max Wind Speed 31 mph    
Max Gust Speed 39 mph    
Visibility 10 miles    
Events Rain , Thunderstorm    
T = Trace of Precipitation, MM = Missing Value Source: NWS Daily Summary

Daily Weather History Graph

Daily Weather History Graph

Search for Another Location

Airport:

Trip Planner

Search our weather history database for the weather conditions in past years. The results will help you decide how hot, cold, wet, or windy it might be!

Date:

Astronomy

Oct. 04, 2012 Rise Set
Actual Time 7:27 AM CDT 7:03 PM CDT
Civil Twilight 6:59 AM CDT 7:30 PM CDT
Nautical Twilight 6:28 AM CDT 8:02 PM CDT
Astronomical Twilight 5:56 AM CDT 8:34 PM CDT
Moon 9:38 PM CDT (10/4) 11:47 AM CDT (10/4)
Length of Visible Light 12h 30m
Length of Day
11h 36m
Waning Gibbous, 82% of the Moon is Illuminated
Oct 4
Waning Gibbous
Oct 8
Last Quarter
Oct 15
New
Oct 21
First Quarter
Oct 29
Full

Hourly Weather History & Observations

Time (CDT) Temp. Windchill Dew Point Humidity Pressure Visibility Wind Dir Wind Speed Gust Speed Precip Events Conditions
12:54 AM 57.0 °F - 41.0 °F 55% 29.99 in 9.0 mi NNW 25.3 mph 34.5 mph N/A   Clear
1:54 AM 55.0 °F - 39.9 °F 57% 30.03 in 10.0 mi NNW 17.3 mph 26.5 mph 0.00 in Rain Light Rain
2:17 AM 53.6 °F - 44.6 °F 72% 30.07 in 10.0 mi NNW 19.6 mph - 0.00 in Rain , Thunderstorm Light Rain
2:35 AM 53.6 °F - 42.8 °F 67% 30.08 in 10.0 mi NNW 23.0 mph 34.5 mph 0.00 in   Mostly Cloudy
2:54 AM 52.0 °F - 42.1 °F 69% 30.05 in 10.0 mi NNW 21.9 mph - 0.00 in   Scattered Clouds
3:54 AM 50.0 °F - 41.0 °F 71% 30.07 in 10.0 mi NNW 20.7 mph 35.7 mph 0.00 in   Scattered Clouds
4:54 AM 48.9 °F - 39.9 °F 71% 30.14 in 10.0 mi NW 13.8 mph 27.6 mph N/A   Mostly Cloudy
5:54 AM 46.9 °F - 39.0 °F 74% 30.16 in 10.0 mi NNW 13.8 mph - N/A   Partly Cloudy
6:54 AM 46.0 °F 39.3 °F 37.0 °F 71% 30.18 in 10.0 mi NNW 16.1 mph - N/A   Partly Cloudy
7:54 AM 46.0 °F 41.0 °F 37.0 °F 71% 30.20 in 10.0 mi NNW 10.4 mph - N/A   Mostly Cloudy
8:30 AM 46.4 °F 39.8 °F 35.6 °F 66% 30.23 in 10.0 mi NNW 16.1 mph 20.7 mph N/A   Overcast
8:54 AM 46.9 °F - 35.1 °F 63% 30.25 in 10.0 mi NNW 13.8 mph - N/A   Overcast
9:30 AM 46.4 °F 39.8 °F 35.6 °F 66% 30.26 in 10.0 mi NNW 16.1 mph 23.0 mph N/A   Overcast
9:54 AM 48.0 °F - 35.1 °F 61% 30.26 in 10.0 mi NW 16.1 mph - N/A   Overcast
10:54 AM 48.9 °F - 34.0 °F 56% 30.28 in 10.0 mi NW 17.3 mph - N/A   Overcast
11:54 AM 52.0 °F - 34.0 °F 50% 30.30 in 10.0 mi NW 13.8 mph 21.9 mph N/A   Overcast
12:54 PM 54.0 °F - 33.1 °F 45% 30.30 in 10.0 mi NW 13.8 mph 23.0 mph N/A   Mostly Cloudy
1:54 PM 57.0 °F - 32.0 °F 39% 30.29 in 10.0 mi North 15.0 mph 23.0 mph N/A   Clear
2:54 PM 57.0 °F - 30.9 °F 37% 30.27 in 10.0 mi NNW 18.4 mph 23.0 mph N/A   Clear
3:54 PM 55.9 °F - 30.9 °F 39% 30.27 in 10.0 mi NNW 13.8 mph - N/A   Clear
4:54 PM 57.0 °F - 30.9 °F 37% 30.26 in 10.0 mi NNW 16.1 mph - N/A   Clear
5:54 PM 54.0 °F - 30.0 °F 40% 30.28 in 10.0 mi North 12.7 mph - N/A   Clear
6:54 PM 52.0 °F - 30.0 °F 43% 30.29 in 10.0 mi North 9.2 mph - N/A   Clear
7:54 PM 48.9 °F - 30.9 °F 50% 30.30 in 10.0 mi North 6.9 mph - N/A   Clear
8:54 PM 48.9 °F - 30.9 °F 50% 30.32 in 10.0 mi North 8.1 mph - N/A   Clear
9:54 PM 48.0 °F - 30.9 °F 52% 30.32 in 10.0 mi North 8.1 mph - N/A   Clear
10:54 PM 48.0 °F - 30.9 °F 52% 30.33 in 10.0 mi North 9.2 mph - N/A   Scattered Clouds
11:54 PM 45.0 °F 39.7 °F 30.0 °F 56% 30.34 in 10.0 mi North 10.4 mph - N/A   Clear